owner,sensor,date,latitude,longitude,vertical_datum,wind_speed,wind_to_direction,wind_speed_of_gust,qcFlag 
TCOON,ioos:station:TCOON:068:1,2016-02-01T00:00:00Z,27.2970,-97.4049,0.0,6.2,162.0,7.7,'11111222,11111222,11111222' 
TCOON,ioos:station:TCOON:068:1,2016-02-01T00:06:00Z,27.2970,-97.4049,0.0,5.5,166.0,6.7,'11111222,11111222,11111222' 
TCOON,ioos:station:TCOON:068:1,2016-02-01T00:12:00Z,27.2970,-97.4049,0.0,6.3,165.0,7.9,'11111222,11111222,11111222' 
TCOON,ioos:station:TCOON:068:1,2016-02-01T00:18:00Z,27.2970,-97.4049,0.0,5.1,162.0,6.8,'11111222,11111222,11111222' 
TCOON,ioos:station:TCOON:068:1,2016-02-01T00:24:00Z,27.2970,-97.4049,0.0,5.2,163.0,6.7,'11111222,11111222,11111222' 
TCOON,ioos:station:TCOON:068:1,2016-02-01T00:30:00Z,27.2970,-97.4049,0.0,5.0,162.0,6.0,'11111222,11111222,11111222' 
TCOON,ioos:station:TCOON:068:1,2016-02-01T00:36:00Z,27.2970,-97.4049,0.0,4.8,163.0,5.8,'11111222,11111222,11111222' 
TCOON,ioos:station:TCOON:068:1,2016-02-01T00:42:00Z,27.2970,-97.4049,0.0,5.0,163.0,6.2,'11111222,11111222,11111222' 
TCOON,ioos:station:TCOON:068:1,2016-02-01T00:48:00Z,27.2970,-97.4049,0.0,5.5,160.0,6.4,'11111222,11111222,11111222' 
TCOON,ioos:station:TCOON:068:1,2016-02-01T00:54:00Z,27.2970,-97.4049,0.0,4.7,164.0,5.8,'11111222,11111222,11111222' 
TCOON,ioos:station:TCOON:068:1,2016-02-01T01:00:00Z,27.2970,-97.4049,0.0,5.4,161.0,6.3,'11111222,11111222,11111222' 
TCOON,ioos:station:TCOON:068:1,2016-02-01T01:06:00Z,27.2970,-97.4049,0.0,5.8,163.0,7.3,'11111222,11111222,11111222' 
TCOON,ioos:station:TCOON:068:1,2016-02-01T01:12:00Z,27.2970,-97.4049,0.0,3.9,154.0,6.2,'11111222,11111222,11111222' 
TCOON,ioos:station:TCOON:068:1,2016-02-01T01:18:00Z,27.2970,-97.4049,0.0,6.1,155.0,7.9,'11111222,11111222,11111222' 
TCOON,ioos:station:TCOON:068:1,2016-02-01T01:24:00Z,27.2970,-97.4049,0.0,4.8,157.0,6.3,'11111222,11111222,11111222' 
TCOON,ioos:station:TCOON:068:1,2016-02-01T01:30:00Z,27.2970,-97.4049,0.0,5.7,161.0,6.8,'11111222,11111222,11111222' 
TCOON,ioos:station:TCOON:068:1,2016-02-01T01:36:00Z,27.2970,-97.4049,0.0,5.8,160.0,7.0,'11111222,11111222,11111222' 
TCOON,ioos:station:TCOON:068:1,2016-02-01T01:42:00Z,27.2970,-97.4049,0.0,4.8,160.0,6.4,'11111222,11111222,11111222' 
TCOON,ioos:station:TCOON:068:1,2016-02-01T01:48:00Z,27.2970,-97.4049,0.0,5.2,163.0,6.2,'11111222,11111222,11111222' 
TCOON,ioos:station:TCOON:068:1,2016-02-01T01:54:00Z,27.2970,-97.4049,0.0,5.6,162.0,7.1,'11111222,11111222,11111222' 
TCOON,ioos:station:TCOON:068:1,2016-02-01T02:00:00Z,27.2970,-97.4049,0.0,6.0,161.0,7.1,'11111222,11111222,11111222' 
TCOON,ioos:station:TCOON:068:1,2016-02-01T02:06:00Z,27.2970,-97.4049,0.0,5.7,162.0,7.2,'11111222,11111222,11111222' 
TCOON,ioos:station:TCOON:068:1,2016-02-01T02:12:00Z,27.2970,-97.4049,0.0,6.6,166.0,7.4,'11111222,11111222,11111222' 
TCOON,ioos:station:TCOON:068:1,2016-02-01T02:18:00Z,27.2970,-97.4049,0.0,6.1,164.0,7.6,'11111222,11111222,11111222' 
TCOON,ioos:station:TCOON:068:1,2016-02-01T02:24:00Z,27.2970,-97.4049,0.0,5.9,162.0,7.9,'11111222,11111222,11111222' 
TCOON,ioos:station:TCOON:068:1,2016-02-01T02:30:00Z,27.2970,-97.4049,0.0,6.7,166.0,7.8,'11111222,11111222,11111222' 
TCOON,ioos:station:TCOON:068:1,2016-02-01T02:36:00Z,27.2970,-97.4049,0.0,6.2,165.0,7.8,'11111222,11111222,11111222' 
TCOON,ioos:station:TCOON:068:1,2016-02-01T02:42:00Z,27.2970,-97.4049,0.0,6.4,163.0,7.9,'11111222,11111222,11111222' 
TCOON,ioos:station:TCOON:068:1,2016-02-01T02:48:00Z,27.2970,-97.4049,0.0,6.2,166.0,7.7,'11111222,11111222,11111222' 
TCOON,ioos:station:TCOON:068:1,2016-02-01T02:54:00Z,27.2970,-97.4049,0.0,7.0,167.0,8.4,'11111222,11111222,11111222' 
TCOON,ioos:station:TCOON:068:1,2016-02-01T03:00:00Z,27.2970,-97.4049,0.0,5.1,162.0,7.1,'11111222,11111222,11111222' 
TCOON,ioos:station:TCOON:068:1,2016-02-01T03:06:00Z,27.2970,-97.4049,0.0,6.3,166.0,7.6,'11111222,11111222,11111222' 
TCOON,ioos:station:TCOON:068:1,2016-02-01T03:12:00Z,27.2970,-97.4049,0.0,7.0,169.0,7.9,'11111222,11111222,11111222' 
TCOON,ioos:station:TCOON:068:1,2016-02-01T03:18:00Z,27.2970,-97.4049,0.0,4.7,160.0,8.0,'11111222,11111222,11111222' 
TCOON,ioos:station:TCOON:068:1,2016-02-01T03:24:00Z,27.2970,-97.4049,0.0,5.9,162.0,7.7,'11111222,11111222,11111222' 
TCOON,ioos:station:TCOON:068:1,2016-02-01T03:30:00Z,27.2970,-97.4049,0.0,5.4,161.0,7.3,'11111222,11111222,11111222' 
TCOON,ioos:station:TCOON:068:1,2016-02-01T03:36:00Z,27.2970,-97.4049,0.0,6.3,158.0,7.9,'11111222,11111222,11111222' 
TCOON,ioos:station:TCOON:068:1,2016-02-01T03:42:00Z,27.2970,-97.4049,0.0,6.1,158.0,7.8,'11111222,11111222,11111222' 
TCOON,ioos:station:TCOON:068:1,2016-02-01T03:48:00Z,27.2970,-97.4049,0.0,6.6,157.0,8.2,'11111222,11111222,11111222' 
TCOON,ioos:station:TCOON:068:1,2016-02-01T03:54:00Z,27.2970,-97.4049,0.0,6.5,160.0,7.9,'11111222,11111222,11111222' 
TCOON,ioos:station:TCOON:068:1,2016-02-01T04:00:00Z,27.2970,-97.4049,0.0,6.5,164.0,9.1,'11111222,11111222,11111222' 
TCOON,ioos:station:TCOON:068:1,2016-02-01T04:06:00Z,27.2970,-97.4049,0.0,6.3,161.0,7.6,'11111222,11111222,11111222' 
TCOON,ioos:station:TCOON:068:1,2016-02-01T04:12:00Z,27.2970,-97.4049,0.0,5.9,161.0,7.0,'11111222,11111222,11111222' 
TCOON,ioos:station:TCOON:068:1,2016-02-01T04:18:00Z,27.2970,-97.4049,0.0,7.0,166.0,7.7,'11111222,11111222,11111222' 
TCOON,ioos:station:TCOON:068:1,2016-02-01T04:24:00Z,27.2970,-97.4049,0.0,5.7,162.0,7.8,'11111222,11111222,11111222' 
TCOON,ioos:station:TCOON:068:1,2016-02-01T04:30:00Z,27.2970,-97.4049,0.0,6.5,159.0,7.6,'11111222,11111222,11111222' 
TCOON,ioos:station:TCOON:068:1,2016-02-01T04:36:00Z,27.2970,-97.4049,0.0,5.6,155.0,7.7,'11111222,11111222,11111222' 
TCOON,ioos:station:TCOON:068:1,2016-02-01T04:42:00Z,27.2970,-97.4049,0.0,5.9,159.0,6.7,'11111222,11111222,11111222' 
TCOON,ioos:station:TCOON:068:1,2016-02-01T04:48:00Z,27.2970,-97.4049,0.0,5.9,156.0,7.0,'11111222,11111222,11111222' 
TCOON,ioos:station:TCOON:068:1,2016-02-01T04:54:00Z,27.2970,-97.4049,0.0,6.0,157.0,7.4,'11111222,11111222,11111222' 
TCOON,ioos:station:TCOON:068:1,2016-02-01T05:00:00Z,27.2970,-97.4049,0.0,6.1,160.0,7.6,'11111222,11111222,11111222' 
TCOON,ioos:station:TCOON:068:1,2016-02-01T05:06:00Z,27.2970,-97.4049,0.0,6.0,157.0,7.6,'11111222,11111222,11111222' 
TCOON,ioos:station:TCOON:068:1,2016-02-01T05:12:00Z,27.2970,-97.4049,0.0,6.4,160.0,7.6,'11111222,11111222,11111222' 
TCOON,ioos:station:TCOON:068:1,2016-02-01T05:18:00Z,27.2970,-97.4049,0.0,6.9,159.0,8.2,'11111222,11111222,11111222' 
TCOON,ioos:station:TCOON:068:1,2016-02-01T05:24:00Z,27.2970,-97.4049,0.0,6.0,161.0,8.5,'11111222,11111222,11111222' 
TCOON,ioos:station:TCOON:068:1,2016-02-01T05:30:00Z,27.2970,-97.4049,0.0,6.5,165.0,8.6,'11111222,11111222,11111222' 
TCOON,ioos:station:TCOON:068:1,2016-02-01T05:36:00Z,27.2970,-97.4049,0.0,6.0,161.0,8.2,'11111222,11111222,11111222' 
TCOON,ioos:station:TCOON:068:1,2016-02-01T05:42:00Z,27.2970,-97.4049,0.0,6.9,162.0,8.9,'11111222,11111222,11111222' 
TCOON,ioos:station:TCOON:068:1,2016-02-01T05:48:00Z,27.2970,-97.4049,0.0,7.8,160.0,9.7,'11111222,11111222,11111222' 
TCOON,ioos:station:TCOON:068:1,2016-02-01T05:54:00Z,27.2970,-97.4049,0.0,8.0,170.0,8.9,'11111222,11111222,11111222' 
TCOON,ioos:station:TCOON:068:1,2016-02-01T06:00:00Z,27.2970,-97.4049,0.0,8.4,168.0,9.6,'11111222,11111222,11111222' 
TCOON,ioos:station:TCOON:068:1,2016-02-01T06:06:00Z,27.2970,-97.4049,0.0,9.4,170.0,10.9,'11111222,11111222,11111222' 
TCOON,ioos:station:TCOON:068:1,2016-02-01T06:12:00Z,27.2970,-97.4049,0.0,8.3,166.0,10.2,'11111222,11111222,11111222' 
TCOON,ioos:station:TCOON:068:1,2016-02-01T06:18:00Z,27.2970,-97.4049,0.0,7.7,169.0,9.6,'11111222,11111222,11111222' 
TCOON,ioos:station:TCOON:068:1,2016-02-01T06:24:00Z,27.2970,-97.4049,0.0,7.7,176.0,10.2,'11111222,11111222,11111222' 
TCOON,ioos:station:TCOON:068:1,2016-02-01T06:30:00Z,27.2970,-97.4049,0.0,7.5,177.0,9.0,'11111222,11111222,11111222' 
TCOON,ioos:station:TCOON:068:1,2016-02-01T06:36:00Z,27.2970,-97.4049,0.0,7.2,175.0,9.7,'11111222,11111222,11111222' 
TCOON,ioos:station:TCOON:068:1,2016-02-01T06:42:00Z,27.2970,-97.4049,0.0,7.3,172.0,9.6,'11111222,11111222,11111222' 
TCOON,ioos:station:TCOON:068:1,2016-02-01T06:48:00Z,27.2970,-97.4049,0.0,6.7,168.0,8.2,'11111222,11111222,11111222' 
TCOON,ioos:station:TCOON:068:1,2016-02-01T06:54:00Z,27.2970,-97.4049,0.0,6.7,170.0,8.6,'11111222,11111222,11111222' 
TCOON,ioos:station:TCOON:068:1,2016-02-01T07:00:00Z,27.2970,-97.4049,0.0,6.4,170.0,7.6,'11111222,11111222,11111222' 
TCOON,ioos:station:TCOON:068:1,2016-02-01T07:06:00Z,27.2970,-97.4049,0.0,6.3,170.0,8.0,'11111222,11111222,11111222' 
TCOON,ioos:station:TCOON:068:1,2016-02-01T07:12:00Z,27.2970,-97.4049,0.0,5.9,172.0,7.1,'11111222,11111222,11111222' 
TCOON,ioos:station:TCOON:068:1,2016-02-01T07:18:00Z,27.2970,-97.4049,0.0,5.7,173.0,8.1,'11111222,11111222,11111222' 
TCOON,ioos:station:TCOON:068:1,2016-02-01T07:24:00Z,27.2970,-97.4049,0.0,5.7,170.0,7.0,'11111222,11111222,11111222' 
TCOON,ioos:station:TCOON:068:1,2016-02-01T07:30:00Z,27.2970,-97.4049,0.0,5.8,176.0,7.5,'11111222,11111222,11111222' 
TCOON,ioos:station:TCOON:068:1,2016-02-01T07:36:00Z,27.2970,-97.4049,0.0,6.0,174.0,7.7,'11111222,11111222,11111222' 
TCOON,ioos:station:TCOON:068:1,2016-02-01T07:42:00Z,27.2970,-97.4049,0.0,6.0,172.0,7.3,'11111222,11111222,11111222' 
TCOON,ioos:station:TCOON:068:1,2016-02-01T07:48:00Z,27.2970,-97.4049,0.0,5.4,174.0,6.7,'11111222,11111222,11111222' 
TCOON,ioos:station:TCOON:068:1,2016-02-01T07:54:00Z,27.2970,-97.4049,0.0,5.6,179.0,7.1,'11111222,11111222,11111222' 
TCOON,ioos:station:TCOON:068:1,2016-02-01T08:00:00Z,27.2970,-97.4049,0.0,6.1,177.0,7.1,'11111222,11111222,11111222' 
TCOON,ioos:station:TCOON:068:1,2016-02-01T08:06:00Z,27.2970,-97.4049,0.0,5.7,181.0,7.0,'11111222,11111222,11111222' 
TCOON,ioos:station:TCOON:068:1,2016-02-01T08:12:00Z,27.2970,-97.4049,0.0,5.9,182.0,7.4,'11111222,11111222,11111222' 
TCOON,ioos:station:TCOON:068:1,2016-02-01T08:18:00Z,27.2970,-97.4049,0.0,6.8,183.0,7.8,'11111222,11111222,11111222' 
TCOON,ioos:station:TCOON:068:1,2016-02-01T08:24:00Z,27.2970,-97.4049,0.0,6.8,186.0,8.1,'11111222,11111222,11111222' 
TCOON,ioos:station:TCOON:068:1,2016-02-01T08:30:00Z,27.2970,-97.4049,0.0,6.7,185.0,7.9,'11111222,11111222,11111222' 
TCOON,ioos:station:TCOON:068:1,2016-02-01T08:36:00Z,27.2970,-97.4049,0.0,5.6,192.0,8.0,'11111222,11111222,11111222' 
TCOON,ioos:station:TCOON:068:1,2016-02-01T08:42:00Z,27.2970,-97.4049,0.0,5.9,189.0,7.8,'11111222,11111222,11111222' 
TCOON,ioos:station:TCOON:068:1,2016-02-01T08:48:00Z,27.2970,-97.4049,0.0,5.1,192.0,6.4,'11111222,11111222,11111222' 
TCOON,ioos:station:TCOON:068:1,2016-02-01T08:54:00Z,27.2970,-97.4049,0.0,4.1,188.0,5.0,'11111222,11111222,11111222' 
TCOON,ioos:station:TCOON:068:1,2016-02-01T09:00:00Z,27.2970,-97.4049,0.0,5.0,191.0,5.7,'11111222,11111222,11111222' 
TCOON,ioos:station:TCOON:068:1,2016-02-01T09:06:00Z,27.2970,-97.4049,0.0,5.3,192.0,6.3,'11111222,11111222,11111222' 
TCOON,ioos:station:TCOON:068:1,2016-02-01T09:12:00Z,27.2970,-97.4049,0.0,4.7,192.0,6.3,'11111222,11111222,11111222' 
TCOON,ioos:station:TCOON:068:1,2016-02-01T09:18:00Z,27.2970,-97.4049,0.0,4.7,192.0,5.5,'11111222,11111222,11111222' 
TCOON,ioos:station:TCOON:068:1,2016-02-01T09:24:00Z,27.2970,-97.4049,0.0,5.3,195.0,7.6,'11111222,11111222,11111222' 
TCOON,ioos:station:TCOON:068:1,2016-02-01T09:30:00Z,27.2970,-97.4049,0.0,5.7,192.0,6.5,'11111222,11111222,11111222' 
TCOON,ioos:station:TCOON:068:1,2016-02-01T09:36:00Z,27.2970,-97.4049,0.0,99.0,-9999.0,99.0,'11144222,99999999,11144222' 
TCOON,ioos:station:TCOON:068:1,2016-02-01T09:42:00Z,27.2970,-97.4049,0.0,99.0,-9999.0,99.0,'11144222,99999999,11144222' 
TCOON,ioos:station:TCOON:068:1,2016-02-01T09:48:00Z,27.2970,-97.4049,0.0,99.0,-9999.0,99.0,'11144222,99999999,11144222' 
TCOON,ioos:station:TCOON:068:1,2016-02-01T09:54:00Z,27.2970,-97.4049,0.0,99.0,-9999.0,99.0,'11144222,99999999,11144222' 
TCOON,ioos:station:TCOON:068:1,2016-02-01T10:00:00Z,27.2970,-97.4049,0.0,99.0,-9999.0,99.0,'11144222,99999999,11144222' 
TCOON,ioos:station:TCOON:068:1,2016-02-01T10:06:00Z,27.2970,-97.4049,0.0,4.3,181.0,5.9,'11111222,11111222,11111222' 
TCOON,ioos:station:TCOON:068:1,2016-02-01T10:12:00Z,27.2970,-97.4049,0.0,4.0,183.0,5.1,'11111222,11111222,11111222' 
TCOON,ioos:station:TCOON:068:1,2016-02-01T10:18:00Z,27.2970,-97.4049,0.0,4.7,183.0,5.6,'11111222,11111222,11111222' 
TCOON,ioos:station:TCOON:068:1,2016-02-01T10:24:00Z,27.2970,-97.4049,0.0,4.3,186.0,5.8,'11111222,11111222,11111222' 
TCOON,ioos:station:TCOON:068:1,2016-02-01T10:30:00Z,27.2970,-97.4049,0.0,4.2,177.0,5.2,'11111222,11111222,11111222' 
TCOON,ioos:station:TCOON:068:1,2016-02-01T10:36:00Z,27.2970,-97.4049,0.0,5.4,181.0,6.5,'11111222,11111222,11111222' 
TCOON,ioos:station:TCOON:068:1,2016-02-01T10:42:00Z,27.2970,-97.4049,0.0,5.8,184.0,7.1,'11111222,11111222,11111222' 
TCOON,ioos:station:TCOON:068:1,2016-02-01T10:48:00Z,27.2970,-97.4049,0.0,4.3,180.0,5.7,'11111222,11111222,11111222' 
TCOON,ioos:station:TCOON:068:1,2016-02-01T10:54:00Z,27.2970,-97.4049,0.0,4.9,188.0,6.7,'11111222,11111222,11111222' 
TCOON,ioos:station:TCOON:068:1,2016-02-01T11:00:00Z,27.2970,-97.4049,0.0,5.1,194.0,5.9,'11111222,11111222,11111222' 
TCOON,ioos:station:TCOON:068:1,2016-02-01T11:06:00Z,27.2970,-97.4049,0.0,5.0,195.0,5.7,'11111222,11111222,11111222' 
TCOON,ioos:station:TCOON:068:1,2016-02-01T11:12:00Z,27.2970,-97.4049,0.0,5.0,192.0,6.2,'11111222,11111222,11111222' 
TCOON,ioos:station:TCOON:068:1,2016-02-01T11:18:00Z,27.2970,-97.4049,0.0,4.7,192.0,5.5,'11111222,11111222,11111222' 
TCOON,ioos:station:TCOON:068:1,2016-02-01T11:24:00Z,27.2970,-97.4049,0.0,4.7,189.0,5.8,'11111222,11111222,11111222' 
TCOON,ioos:station:TCOON:068:1,2016-02-01T11:30:00Z,27.2970,-97.4049,0.0,4.3,186.0,5.0,'11111222,11111222,11111222' 
TCOON,ioos:station:TCOON:068:1,2016-02-01T11:36:00Z,27.2970,-97.4049,0.0,4.1,182.0,4.6,'11111222,11111222,11111222' 
TCOON,ioos:station:TCOON:068:1,2016-02-01T11:42:00Z,27.2970,-97.4049,0.0,4.5,180.0,5.3,'11111222,11111222,11111222' 
TCOON,ioos:station:TCOON:068:1,2016-02-01T11:48:00Z,27.2970,-97.4049,0.0,4.8,180.0,5.5,'11111222,11111222,11111222' 
TCOON,ioos:station:TCOON:068:1,2016-02-01T11:54:00Z,27.2970,-97.4049,0.0,5.4,181.0,6.3,'11111222,11111222,11111222' 
TCOON,ioos:station:TCOON:068:1,2016-02-01T12:00:00Z,27.2970,-97.4049,0.0,4.8,181.0,5.4,'11111222,11111222,11111222' 
TCOON,ioos:station:TCOON:068:1,2016-02-01T12:06:00Z,27.2970,-97.4049,0.0,4.9,178.0,6.1,'11111222,11111222,11111222' 
TCOON,ioos:station:TCOON:068:1,2016-02-01T12:12:00Z,27.2970,-97.4049,0.0,5.1,177.0,5.7,'11111222,11111222,11111222' 
TCOON,ioos:station:TCOON:068:1,2016-02-01T12:18:00Z,27.2970,-97.4049,0.0,4.6,179.0,5.6,'11111222,11111222,11111222' 
TCOON,ioos:station:TCOON:068:1,2016-02-01T12:24:00Z,27.2970,-97.4049,0.0,5.0,178.0,5.7,'11111222,11111222,11111222' 
TCOON,ioos:station:TCOON:068:1,2016-02-01T12:30:00Z,27.2970,-97.4049,0.0,5.3,175.0,7.8,'11111222,11111222,11111222' 
TCOON,ioos:station:TCOON:068:1,2016-02-01T12:36:00Z,27.2970,-97.4049,0.0,5.4,176.0,6.4,'11111222,11111222,11111222' 
TCOON,ioos:station:TCOON:068:1,2016-02-01T12:42:00Z,27.2970,-97.4049,0.0,5.2,170.0,6.4,'11111222,11111222,11111222' 
TCOON,ioos:station:TCOON:068:1,2016-02-01T12:48:00Z,27.2970,-97.4049,0.0,4.7,168.0,6.2,'11111222,11111222,11111222' 
TCOON,ioos:station:TCOON:068:1,2016-02-01T12:54:00Z,27.2970,-97.4049,0.0,5.2,176.0,6.2,'11111222,11111222,11111222' 
TCOON,ioos:station:TCOON:068:1,2016-02-01T13:00:00Z,27.2970,-97.4049,0.0,5.3,175.0,6.7,'11111222,11111222,11111222' 
TCOON,ioos:station:TCOON:068:1,2016-02-01T13:06:00Z,27.2970,-97.4049,0.0,4.8,175.0,5.9,'11111222,11111222,11111222' 
TCOON,ioos:station:TCOON:068:1,2016-02-01T13:12:00Z,27.2970,-97.4049,0.0,5.0,178.0,7.0,'11111222,11111222,11111222' 
TCOON,ioos:station:TCOON:068:1,2016-02-01T13:18:00Z,27.2970,-97.4049,0.0,4.7,180.0,5.5,'11111222,11111222,11111222' 
TCOON,ioos:station:TCOON:068:1,2016-02-01T13:24:00Z,27.2970,-97.4049,0.0,5.3,178.0,6.1,'11111222,11111222,11111222' 
TCOON,ioos:station:TCOON:068:1,2016-02-01T13:30:00Z,27.2970,-97.4049,0.0,4.7,177.0,6.1,'11111222,11111222,11111222' 
TCOON,ioos:station:TCOON:068:1,2016-02-01T13:36:00Z,27.2970,-97.4049,0.0,5.1,174.0,6.2,'11111222,11111222,11111222' 
TCOON,ioos:station:TCOON:068:1,2016-02-01T13:42:00Z,27.2970,-97.4049,0.0,6.0,175.0,7.0,'11111222,11111222,11111222' 
TCOON,ioos:station:TCOON:068:1,2016-02-01T13:48:00Z,27.2970,-97.4049,0.0,7.3,175.0,9.1,'11111222,11111222,11111222' 
TCOON,ioos:station:TCOON:068:1,2016-02-01T13:54:00Z,27.2970,-97.4049,0.0,6.5,175.0,8.1,'11111222,11111222,11111222' 
TCOON,ioos:station:TCOON:068:1,2016-02-01T14:00:00Z,27.2970,-97.4049,0.0,5.5,173.0,6.8,'11111222,11111222,11111222' 
TCOON,ioos:station:TCOON:068:1,2016-02-01T14:06:00Z,27.2970,-97.4049,0.0,5.5,175.0,7.0,'11111222,11111222,11111222' 
TCOON,ioos:station:TCOON:068:1,2016-02-01T14:12:00Z,27.2970,-97.4049,0.0,6.4,171.0,7.4,'11111222,11111222,11111222' 
TCOON,ioos:station:TCOON:068:1,2016-02-01T14:18:00Z,27.2970,-97.4049,0.0,6.1,167.0,7.9,'11111222,11111222,11111222' 
TCOON,ioos:station:TCOON:068:1,2016-02-01T14:24:00Z,27.2970,-97.4049,0.0,5.6,166.0,6.9,'11111222,11111222,11111222' 
TCOON,ioos:station:TCOON:068:1,2016-02-01T14:30:00Z,27.2970,-97.4049,0.0,6.0,164.0,7.4,'11111222,11111222,11111222' 
TCOON,ioos:station:TCOON:068:1,2016-02-01T14:36:00Z,27.2970,-97.4049,0.0,6.5,165.0,7.6,'11111222,11111222,11111222' 
TCOON,ioos:station:TCOON:068:1,2016-02-01T14:42:00Z,27.2970,-97.4049,0.0,6.5,164.0,7.9,'11111222,11111222,11111222' 
TCOON,ioos:station:TCOON:068:1,2016-02-01T14:48:00Z,27.2970,-97.4049,0.0,5.8,166.0,6.9,'11111222,11111222,11111222' 
TCOON,ioos:station:TCOON:068:1,2016-02-01T14:54:00Z,27.2970,-97.4049,0.0,6.6,165.0,9.0,'11111222,11111222,11111222' 
TCOON,ioos:station:TCOON:068:1,2016-02-01T15:00:00Z,27.2970,-97.4049,0.0,7.8,165.0,10.8,'11111222,11111222,11111222' 
TCOON,ioos:station:TCOON:068:1,2016-02-01T15:06:00Z,27.2970,-97.4049,0.0,6.9,162.0,9.5,'11111222,11111222,11111222' 
TCOON,ioos:station:TCOON:068:1,2016-02-01T15:12:00Z,27.2970,-97.4049,0.0,7.5,161.0,9.4,'11111222,11111222,11111222' 
TCOON,ioos:station:TCOON:068:1,2016-02-01T15:18:00Z,27.2970,-97.4049,0.0,7.8,165.0,9.7,'11111222,11111222,11111222' 
TCOON,ioos:station:TCOON:068:1,2016-02-01T15:24:00Z,27.2970,-97.4049,0.0,8.1,167.0,10.0,'11111222,11111222,11111222' 
TCOON,ioos:station:TCOON:068:1,2016-02-01T15:30:00Z,27.2970,-97.4049,0.0,8.2,168.0,10.3,'11111222,11111222,11111222' 
TCOON,ioos:station:TCOON:068:1,2016-02-01T15:36:00Z,27.2970,-97.4049,0.0,8.1,172.0,9.8,'11111222,11111222,11111222' 
TCOON,ioos:station:TCOON:068:1,2016-02-01T15:42:00Z,27.2970,-97.4049,0.0,8.1,172.0,9.8,'1111122,1111122,1111122' 
TCOON,ioos:station:TCOON:068:1,2016-02-01T15:48:00Z,27.2970,-97.4049,0.0,8.3,169.0,9.6,'11111222,11111222,11111222' 
TCOON,ioos:station:TCOON:068:1,2016-02-01T15:54:00Z,27.2970,-97.4049,0.0,8.0,166.0,11.4,'11111222,11111222,11111222' 
TCOON,ioos:station:TCOON:068:1,2016-02-01T16:00:00Z,27.2970,-97.4049,0.0,8.4,169.0,10.2,'11111222,11111222,11111222' 
TCOON,ioos:station:TCOON:068:1,2016-02-01T16:06:00Z,27.2970,-97.4049,0.0,7.9,171.0,10.6,'11111222,11111222,11111222' 
TCOON,ioos:station:TCOON:068:1,2016-02-01T16:12:00Z,27.2970,-97.4049,0.0,8.0,175.0,10.7,'11111222,11111222,11111222' 
TCOON,ioos:station:TCOON:068:1,2016-02-01T16:18:00Z,27.2970,-97.4049,0.0,7.6,174.0,9.2,'11111222,11111222,11111222' 
TCOON,ioos:station:TCOON:068:1,2016-02-01T16:24:00Z,27.2970,-97.4049,0.0,7.7,171.0,9.6,'11111222,11111222,11111222' 
TCOON,ioos:station:TCOON:068:1,2016-02-01T16:30:00Z,27.2970,-97.4049,0.0,8.2,170.0,10.5,'11111222,11111222,11111222' 
TCOON,ioos:station:TCOON:068:1,2016-02-01T16:36:00Z,27.2970,-97.4049,0.0,7.5,169.0,8.9,'11111222,11111222,11111222' 
TCOON,ioos:station:TCOON:068:1,2016-02-01T16:42:00Z,27.2970,-97.4049,0.0,7.9,171.0,9.8,'11111222,11111222,11111222' 
TCOON,ioos:station:TCOON:068:1,2016-02-01T16:48:00Z,27.2970,-97.4049,0.0,7.9,171.0,9.8,'1111122,1111122,1111122' 
TCOON,ioos:station:TCOON:068:1,2016-02-01T16:54:00Z,27.2970,-97.4049,0.0,8.4,165.0,10.8,'11111222,11111222,11111222' 
TCOON,ioos:station:TCOON:068:1,2016-02-01T17:00:00Z,27.2970,-97.4049,0.0,8.6,164.0,10.5,'11111222,11111222,11111222' 
TCOON,ioos:station:TCOON:068:1,2016-02-01T17:06:00Z,27.2970,-97.4049,0.0,8.4,167.0,10.6,'11111222,11111222,11111222' 
TCOON,ioos:station:TCOON:068:1,2016-02-01T17:12:00Z,27.2970,-97.4049,0.0,7.8,164.0,10.5,'11111222,11111222,11111222' 
TCOON,ioos:station:TCOON:068:1,2016-02-01T17:18:00Z,27.2970,-97.4049,0.0,8.6,163.0,10.3,'11111222,11111222,11111222' 
TCOON,ioos:station:TCOON:068:1,2016-02-01T17:24:00Z,27.2970,-97.4049,0.0,8.5,162.0,10.7,'11111222,11111222,11111222' 
TCOON,ioos:station:TCOON:068:1,2016-02-01T17:30:00Z,27.2970,-97.4049,0.0,8.7,164.0,10.7,'11111222,11111222,11111222' 
TCOON,ioos:station:TCOON:068:1,2016-02-01T17:36:00Z,27.2970,-97.4049,0.0,8.2,164.0,11.0,'11111222,11111222,11111222' 
TCOON,ioos:station:TCOON:068:1,2016-02-01T17:42:00Z,27.2970,-97.4049,0.0,8.2,164.0,11.0,'1111122,1111122,1111122' 
TCOON,ioos:station:TCOON:068:1,2016-02-01T17:48:00Z,27.2970,-97.4049,0.0,8.7,165.0,11.5,'11111222,11111222,11111222' 
TCOON,ioos:station:TCOON:068:1,2016-02-01T17:54:00Z,27.2970,-97.4049,0.0,9.0,165.0,11.6,'11111222,11111222,11111222' 
TCOON,ioos:station:TCOON:068:1,2016-02-01T18:00:00Z,27.2970,-97.4049,0.0,8.8,162.0,11.1,'11111222,11111222,11111222' 
TCOON,ioos:station:TCOON:068:1,2016-02-01T18:06:00Z,27.2970,-97.4049,0.0,9.2,163.0,12.8,'11111222,11111222,11111222' 
TCOON,ioos:station:TCOON:068:1,2016-02-01T18:12:00Z,27.2970,-97.4049,0.0,9.4,159.0,11.6,'11111222,11111222,11111222' 
TCOON,ioos:station:TCOON:068:1,2016-02-01T18:18:00Z,27.2970,-97.4049,0.0,9.4,160.0,12.2,'11111222,11111222,11111222' 
TCOON,ioos:station:TCOON:068:1,2016-02-01T18:24:00Z,27.2970,-97.4049,0.0,9.6,161.0,12.0,'11111222,11111222,11111222' 
TCOON,ioos:station:TCOON:068:1,2016-02-01T18:30:00Z,27.2970,-97.4049,0.0,9.3,159.0,13.3,'11111222,11111222,11111222' 
TCOON,ioos:station:TCOON:068:1,2016-02-01T18:36:00Z,27.2970,-97.4049,0.0,10.6,158.0,12.6,'11111222,11111222,11111222' 
TCOON,ioos:station:TCOON:068:1,2016-02-01T18:42:00Z,27.2970,-97.4049,0.0,10.6,158.0,12.6,'1111122,1111122,1111122' 
TCOON,ioos:station:TCOON:068:1,2016-02-01T18:48:00Z,27.2970,-97.4049,0.0,9.8,158.0,12.9,'11111222,11111222,11111222' 
TCOON,ioos:station:TCOON:068:1,2016-02-01T18:54:00Z,27.2970,-97.4049,0.0,10.5,158.0,12.8,'11111222,11111222,11111222' 
TCOON,ioos:station:TCOON:068:1,2016-02-01T19:00:00Z,27.2970,-97.4049,0.0,10.6,158.0,14.0,'11111222,11111222,11111222' 
TCOON,ioos:station:TCOON:068:1,2016-02-01T19:06:00Z,27.2970,-97.4049,0.0,10.5,157.0,13.1,'11111222,11111222,11111222' 
TCOON,ioos:station:TCOON:068:1,2016-02-01T19:12:00Z,27.2970,-97.4049,0.0,11.0,155.0,13.1,'11111222,11111222,11111222' 
TCOON,ioos:station:TCOON:068:1,2016-02-01T19:18:00Z,27.2970,-97.4049,0.0,10.6,158.0,14.0,'11111222,11111222,11111222' 
TCOON,ioos:station:TCOON:068:1,2016-02-01T19:24:00Z,27.2970,-97.4049,0.0,10.5,156.0,12.7,'11111222,11111222,11111222' 
TCOON,ioos:station:TCOON:068:1,2016-02-01T19:30:00Z,27.2970,-97.4049,0.0,10.5,157.0,12.7,'11111222,11111222,11111222' 
TCOON,ioos:station:TCOON:068:1,2016-02-01T19:36:00Z,27.2970,-97.4049,0.0,10.5,157.0,12.7,'1111122,1111122,1111122' 
TCOON,ioos:station:TCOON:068:1,2016-02-01T19:42:00Z,27.2970,-97.4049,0.0,10.3,157.0,13.0,'11111222,11111222,11111222' 
TCOON,ioos:station:TCOON:068:1,2016-02-01T19:48:00Z,27.2970,-97.4049,0.0,10.5,154.0,14.5,'11111222,11111222,11111222' 
TCOON,ioos:station:TCOON:068:1,2016-02-01T19:54:00Z,27.2970,-97.4049,0.0,10.2,154.0,13.3,'11111222,11111222,11111222' 
TCOON,ioos:station:TCOON:068:1,2016-02-01T20:00:00Z,27.2970,-97.4049,0.0,9.7,153.0,13.7,'11111222,11111222,11111222' 
TCOON,ioos:station:TCOON:068:1,2016-02-01T20:06:00Z,27.2970,-97.4049,0.0,9.6,151.0,11.5,'11111222,11111222,11111222' 
TCOON,ioos:station:TCOON:068:1,2016-02-01T20:12:00Z,27.2970,-97.4049,0.0,9.4,152.0,13.3,'11111222,11111222,11111222' 